TimeCST,TemperatureF,Dew PointF,Humidity,Sea Level PressureIn,VisibilityMPH,Wind Direction,Wind SpeedMPH,Gust SpeedMPH,PrecipitationIn,Events,Conditions,WindDirDegrees,DateUTC
12:15 AM,43.7,30.7,60,30.39,10.0,NNE,6.9,-,N/A,,Clear,30,2013-11-14 06:15:00
12:35 AM,43.2,30.7,62,30.39,10.0,NNE,5.8,-,N/A,,Clear,20,2013-11-14 06:35:00
12:55 AM,43.0,30.2,61,30.38,10.0,NNE,6.9,-,N/A,,Clear,30,2013-11-14 06:55:00
1:15 AM,43.2,30.2,60,30.37,10.0,NNE,5.8,-,N/A,,Clear,30,2013-11-14 07:15:00
1:35 AM,42.8,30.2,61,30.36,10.0,NNE,5.8,-,N/A,,Clear,20,2013-11-14 07:35:00
1:55 AM,42.8,30.4,62,30.36,10.0,NNE,5.8,-,N/A,,Clear,20,2013-11-14 07:55:00
2:15 AM,42.1,31.1,65,30.36,10.0,NNE,5.8,-,N/A,,Clear,20,2013-11-14 08:15:00
2:35 AM,42.6,30.9,63,30.35,10.0,NNE,6.9,-,N/A,,Clear,20,2013-11-14 08:35:00
2:55 AM,42.8,31.1,63,30.34,10.0,NNE,5.8,-,N/A,,Clear,20,2013-11-14 08:55:00
3:15 AM,42.3,31.6,66,30.34,10.0,NNE,5.8,-,N/A,,Clear,20,2013-11-14 09:15:00
3:35 AM,41.9,32.0,68,30.34,10.0,NNE,4.6,-,N/A,,Clear,20,2013-11-14 09:35:00
3:55 AM,41.5,32.2,69,30.33,10.0,North,4.6,-,N/A,,Clear,10,2013-11-14 09:55:00
4:15 AM,40.3,32.9,75,30.34,10.0,NNE,5.8,-,N/A,,Clear,20,2013-11-14 10:15:00
4:35 AM,41.9,32.9,70,30.34,10.0,NNE,5.8,-,N/A,,Clear,20,2013-11-14 10:35:00
4:55 AM,42.8,33.1,69,30.33,10.0,NNE,5.8,-,N/A,,Clear,30,2013-11-14 10:55:00
5:48 AM,42.8,33.8,70,30.35,7.0,NNE,9.2,-,N/A,,Scattered Clouds,30,2013-11-14 11:48:00
6:48 AM,44.6,32.0,61,30.35,7.0,NNE,6.9,-,N/A,,Scattered Clouds,30,2013-11-14 12:48:00
7:50 AM,46.4,33.8,62,30.35,7.0,NNE,16.1,-,N/A,,Scattered Clouds,30,2013-11-14 13:50:00
8:47 AM,50.0,39.2,66,30.34,7.0,NNE,16.1,-,N/A,,Scattered Clouds,30,2013-11-14 14:47:00
9:48 AM,53.6,44.6,72,30.34,7.0,NE,11.5,-,N/A,,Unknown,40,2013-11-14 15:48:00
10:48 AM,57.2,44.6,63,30.32,7.0,NE,12.7,-,N/A,,Mostly Cloudy,50,2013-11-14 16:48:00
11:50 AM,60.8,46.4,59,30.28,7.0,NNE,11.5,-,N/A,,Mostly Cloudy,30,2013-11-14 17:50:00
12:50 PM,62.6,46.4,55,30.24,7.0,NE,11.5,-,N/A,,Overcast,40,2013-11-14 18:50:00
1:50 PM,62.6,46.4,55,30.22,7.0,ENE,11.5,-,N/A,,Overcast,70,2013-11-14 19:50:00
2:50 PM,62.6,48.2,59,30.20,7.0,NE,11.5,-,N/A,,Overcast,40,2013-11-14 20:50:00
3:50 PM,62.6,50.0,63,30.20,7.0,ENE,11.5,-,N/A,,Overcast,60,2013-11-14 21:50:00
4:50 PM,60.8,50.0,68,30.18,7.0,ENE,6.9,-,N/A,,Overcast,60,2013-11-14 22:50:00
5:50 PM,59.0,50.0,72,30.19,7.0,NE,6.9,-,N/A,,Overcast,50,2013-11-14 23:50:00
6:15 PM,58.6,50.0,73,30.18,10.0,NE,6.9,-,N/A,,Overcast,50,2013-11-15 00:15:00
6:35 PM,58.5,50.2,74,30.18,10.0,ENE,6.9,-,N/A,,Overcast,60,2013-11-15 00:35:00
6:50 PM,59.0,50.0,72,30.19,7.0,NE,6.9,-,N/A,,Overcast,50,2013-11-15 00:50:00
6:55 PM,58.1,50.4,75,30.17,10.0,NE,5.8,-,N/A,,Mostly Cloudy,50,2013-11-15 00:55:00
7:15 PM,58.1,50.9,77,30.17,10.0,NE,5.8,-,N/A,,Mostly Cloudy,50,2013-11-15 01:15:00
7:35 PM,57.7,51.1,78,30.17,7.0,ENE,6.9,-,N/A,,Mostly Cloudy,60,2013-11-15 01:35:00
7:55 PM,57.6,51.4,80,30.17,7.0,NE,5.8,-,N/A,,Mostly Cloudy,40,2013-11-15 01:55:00
8:15 PM,58.1,51.8,80,30.17,7.0,NE,6.9,-,N/A,,Overcast,50,2013-11-15 02:15:00
8:35 PM,58.1,52.0,80,30.16,10.0,ENE,6.9,-,N/A,,Overcast,60,2013-11-15 02:35:00
8:55 PM,58.1,52.3,81,30.16,7.0,NE,4.6,-,N/A,,Overcast,40,2013-11-15 02:55:00
9:15 PM,58.1,52.7,82,30.15,7.0,East,5.8,-,N/A,,Overcast,90,2013-11-15 03:15:00
9:35 PM,58.3,53.1,83,30.15,7.0,NE,4.6,-,N/A,,Scattered Clouds,50,2013-11-15 03:35:00
9:55 PM,58.5,53.6,84,30.14,7.0,ENE,5.8,-,N/A,,Scattered Clouds,60,2013-11-15 03:55:00
10:15 PM,59.0,54.3,84,30.13,10.0,ENE,5.8,-,N/A,Rain,Light Rain,70,2013-11-15 04:15:00
10:35 PM,59.2,55.0,86,30.13,10.0,NE,4.6,-,N/A,Rain,Light Rain,40,2013-11-15 04:35:00
10:55 PM,59.0,55.4,88,30.13,10.0,NNE,5.8,-,N/A,,Light Drizzle,30,2013-11-15 04:55:00
11:15 PM,59.2,55.8,88,30.12,10.0,NE,6.9,-,N/A,,Light Drizzle,50,2013-11-15 05:15:00
11:35 PM,59.2,55.8,88,30.10,10.0,ENE,5.8,-,N/A,,Light Drizzle,70,2013-11-15 05:35:00
11:55 PM,59.5,56.3,89,30.10,5.0,East,5.8,-,N/A,,Mostly Cloudy,80,2013-11-15 05:55:00